VOI1782 SKBO-SKRG

Flight info

Callsign VOI1782
Flight time 0h 33m
Altitude 24000
Route TOBKI4R VASIL W36 NIRSO NIRSO3C
Aircraft A20N/M-SDE2E3FGHIRWXY/LB1

Departure

Time 2026-05-09 22:36
Airport El Dorado International Airport (SKBO)

Arrival

Time 2026-05-09 23:10
Airport Jose Maria Córdova International Airport (SKRG)
Time Latitude Longitude Altitude Speed Heading
2026-05-09 22:02 4.69963 -74.14297 8364 ft 0 kts 38°
2026-05-09 22:15 4.69952 -74.14306 8365 ft 2 kts 38°
2026-05-09 22:15 4.69939 -74.14316 8365 ft 2 kts 37°
2026-05-09 22:15 4.69926 -74.14326 8365 ft 2 kts 35°
2026-05-09 22:15 4.69912 -74.14335 8365 ft 2 kts 20°
2026-05-09 22:16 4.69896 -74.14337 8365 ft 2 kts 347°
2026-05-09 22:16 4.69883 -74.14331 8364 ft 1 kts 319°
2026-05-09 22:16 4.69880 -74.14328 8364 ft 0 kts 314°
2026-05-09 22:16 4.69878 -74.14326 8365 ft 0 kts 314°
2026-05-09 22:17 4.69876 -74.14324 8365 ft 0 kts 309°
2026-05-09 22:24 4.69879 -74.14327 8365 ft 0 kts 309°
2026-05-09 22:26 4.69881 -74.14331 8365 ft 2 kts 309°
2026-05-09 22:26 4.69902 -74.14356 8364 ft 6 kts 308°
2026-05-09 22:26 4.69926 -74.14388 8364 ft 6 kts 307°
2026-05-09 22:26 4.69954 -74.14426 8365 ft 8 kts 306°
2026-05-09 22:27 4.69991 -74.14475 8364 ft 10 kts 306°
2026-05-09 22:27 4.70035 -74.14533 8364 ft 11 kts 307°
2026-05-09 22:27 4.70087 -74.14601 8364 ft 13 kts 308°
2026-05-09 22:27 4.70150 -74.14659 8364 ft 10 kts 308°
2026-05-09 22:28 4.70147 -74.14709 8364 ft 7 kts 232°
2026-05-09 22:28 4.70104 -74.14747 8365 ft 10 kts 217°
2026-05-09 22:28 4.70038 -74.14798 8364 ft 14 kts 217°
2026-05-09 22:28 4.69952 -74.14864 8365 ft 17 kts 217°
2026-05-09 22:29 4.69858 -74.14943 8365 ft 17 kts 244°
2026-05-09 22:29 4.69906 -74.15046 8365 ft 18 kts 307°
2026-05-09 22:29 4.69983 -74.15148 8365 ft 19 kts 307°
2026-05-09 22:29 4.70066 -74.15257 8365 ft 20 kts 307°
2026-05-09 22:30 4.70149 -74.15367 8364 ft 19 kts 307°
2026-05-09 22:30 4.70227 -74.15472 8364 ft 18 kts 307°
2026-05-09 22:30 4.70301 -74.15567 8364 ft 17 kts 307°
2026-05-09 22:30 4.70367 -74.15658 8364 ft 15 kts 307°
2026-05-09 22:31 4.70431 -74.15739 8364 ft 14 kts 308°
2026-05-09 22:31 4.70487 -74.15812 8364 ft 13 kts 306°
2026-05-09 22:31 4.70536 -74.15879 8364 ft 11 kts 306°
2026-05-09 22:31 4.70580 -74.15939 8364 ft 10 kts 307°
2026-05-09 22:32 4.70623 -74.15995 8364 ft 12 kts 308°
2026-05-09 22:32 4.70682 -74.16070 8364 ft 15 kts 306°
2026-05-09 22:32 4.70753 -74.16166 8364 ft 19 kts 307°
2026-05-09 22:32 4.70830 -74.16265 8364 ft 17 kts 307°
2026-05-09 22:33 4.70901 -74.16359 8364 ft 17 kts 307°
2026-05-09 22:33 4.70970 -74.16451 8364 ft 16 kts 308°
2026-05-09 22:33 4.71035 -74.16535 8363 ft 15 kts 308°
2026-05-09 22:33 4.71094 -74.16613 8363 ft 13 kts 307°
2026-05-09 22:34 4.71148 -74.16685 8364 ft 13 kts 307°
2026-05-09 22:34 4.71199 -74.16765 8364 ft 12 kts 281°
2026-05-09 22:34 4.71159 -74.16826 8363 ft 12 kts 218°
2026-05-09 22:34 4.71080 -74.16880 8362 ft 14 kts 199°
2026-05-09 22:35 4.71011 -74.16861 8363 ft 9 kts 138°
2026-05-09 22:35 4.70928 -74.16758 8363 ft 43 kts 127°
2026-05-09 22:35 4.70633 -74.16365 8365 ft 100 kts 127°
2026-05-09 22:35 4.70092 -74.15651 8364 ft 156 kts 127°
2026-05-09 22:36 4.69370 -74.14697 8554 ft 180 kts 126°
2026-05-09 22:36 4.68536 -74.13715 8966 ft 195 kts 143°
2026-05-09 22:36 4.67230 -74.13298 9497 ft 200 kts 182°
2026-05-09 22:36 4.65877 -74.13739 9869 ft 219 kts 217°
2026-05-09 22:37 4.64856 -74.14967 10211 ft 239 kts 237°
2026-05-09 22:37 4.64003 -74.16436 10720 ft 248 kts 239°
2026-05-09 22:37 4.63153 -74.17955 11461 ft 251 kts 238°
2026-05-09 22:37 4.62284 -74.19482 12281 ft 252 kts 238°
2026-05-09 22:38 4.61548 -74.21093 13075 ft 258 kts 250°
2026-05-09 22:38 4.61096 -74.22913 13495 ft 280 kts 256°
2026-05-09 22:38 4.60708 -74.24916 13777 ft 305 kts 257°
2026-05-09 22:39 4.60147 -74.29456 14291 ft 350 kts 265°
2026-05-09 22:39 4.60018 -74.31910 14633 ft 363 kts 265°
2026-05-09 22:39 4.59891 -74.34503 15155 ft 370 kts 265°
2026-05-09 22:40 4.59681 -74.39633 16749 ft 361 kts 267°
2026-05-09 22:40 4.59690 -74.42114 17895 ft 349 kts 274°
2026-05-09 22:40 4.60024 -74.44395 18809 ft 308 kts 283°
2026-05-09 22:40 4.60663 -74.46305 19467 ft 283 kts 295°
2026-05-09 22:41 4.61648 -74.47988 19832 ft 279 kts 307°
2026-05-09 22:41 4.62991 -74.49446 19924 ft 297 kts 318°
2026-05-09 22:41 4.64681 -74.50664 19879 ft 295 kts 330°
2026-05-09 22:41 4.66529 -74.51487 19879 ft 287 kts 342°
2026-05-09 22:42 4.67804 -74.51808 19892 ft 285 kts 346°
2026-05-09 22:42 4.69638 -74.52500 19881 ft 282 kts 326°
2026-05-09 22:42 4.71301 -74.54427 19886 ft 277 kts 290°
2026-05-09 22:42 4.71744 -74.56302 19887 ft 278 kts 277°
2026-05-09 22:43 4.71897 -74.57608 19889 ft 280 kts 275°
2026-05-09 22:43 4.72084 -74.59552 19879 ft 281 kts 275°
2026-05-09 22:43 4.72315 -74.61469 19885 ft 281 kts 282°
2026-05-09 22:43 4.72915 -74.63325 19886 ft 281 kts 295°
2026-05-09 22:44 4.73912 -74.65005 19869 ft 281 kts 307°
2026-05-09 22:44 4.75258 -74.66426 19863 ft 282 kts 320°
2026-05-09 22:44 4.76888 -74.67520 19869 ft 283 kts 333°
2026-05-09 22:44 4.78726 -74.68232 19869 ft 283 kts 345°
2026-05-09 22:45 4.80679 -74.68526 19871 ft 284 kts 358°
2026-05-09 22:45 4.82651 -74.68388 19868 ft 285 kts 10°
2026-05-09 22:45 4.84607 -74.68086 19862 ft 284 kts 357°
2026-05-09 22:45 4.86502 -74.68522 19869 ft 279 kts 334°
2026-05-09 22:46 4.88179 -74.69453 19872 ft 280 kts 329°
2026-05-09 22:46 4.89768 -74.70574 19869 ft 280 kts 316°
2026-05-09 22:46 4.91218 -74.71920 19871 ft 280 kts 315°
2026-05-09 22:47 4.93935 -74.74693 19843 ft 280 kts 305°
2026-05-09 22:47 4.94946 -74.76356 19840 ft 280 kts 297°
2026-05-09 22:47 4.95764 -74.77992 19836 ft 280 kts 295°
2026-05-09 22:47 4.96611 -74.79750 19854 ft 280 kts 295°
2026-05-09 22:48 4.97459 -74.81514 19844 ft 280 kts 295°
2026-05-09 22:48 4.98309 -74.83273 19834 ft 280 kts 295°
2026-05-09 22:48 4.99160 -74.85028 19829 ft 280 kts 295°
2026-05-09 22:48 5.00014 -74.86788 19822 ft 280 kts 295°
2026-05-09 22:49 5.00868 -74.88545 19816 ft 280 kts 295°
2026-05-09 22:49 5.01722 -74.90300 19814 ft 280 kts 295°
2026-05-09 22:49 5.02577 -74.92057 19808 ft 280 kts 295°
2026-05-09 22:49 5.03433 -74.93818 19804 ft 280 kts 295°
2026-05-09 22:50 5.04289 -74.95577 19802 ft 280 kts 295°
2026-05-09 22:50 5.05142 -74.97330 19804 ft 280 kts 295°
2026-05-09 22:50 5.05997 -74.99087 19805 ft 280 kts 295°
2026-05-09 22:50 5.06841 -75.00821 19907 ft 280 kts 295°
2026-05-09 22:51 5.07696 -75.02578 19908 ft 280 kts 295°
2026-05-09 22:51 5.08549 -75.04332 19906 ft 280 kts 295°
2026-05-09 22:51 5.09404 -75.06090 19915 ft 280 kts 295°
2026-05-09 22:51 5.10259 -75.07848 19973 ft 280 kts 295°
2026-05-09 22:52 5.11114 -75.09607 19980 ft 281 kts 295°
2026-05-09 22:52 5.11971 -75.11368 19978 ft 281 kts 295°
2026-05-09 22:52 5.12829 -75.13134 19984 ft 281 kts 295°
2026-05-09 22:52 5.13679 -75.14882 19999 ft 274 kts 295°
2026-05-09 22:53 5.14504 -75.16578 20007 ft 268 kts 295°
2026-05-09 22:53 5.15356 -75.18230 20020 ft 266 kts 301°
2026-05-09 22:53 5.16439 -75.19732 20020 ft 266 kts 309°
2026-05-09 22:53 5.17652 -75.21145 20049 ft 266 kts 311°
2026-05-09 22:54 5.18883 -75.22532 20053 ft 266 kts 311°
2026-05-09 22:54 5.20103 -75.23902 20049 ft 266 kts 311°
2026-05-09 22:54 5.21335 -75.25289 20056 ft 266 kts 311°
2026-05-09 22:54 5.22566 -75.26678 20060 ft 266 kts 311°
2026-05-09 22:55 5.23793 -75.28065 20055 ft 266 kts 311°
2026-05-09 22:55 5.25022 -75.29453 20063 ft 267 kts 311°
2026-05-09 22:55 5.26263 -75.30857 20064 ft 270 kts 311°
2026-05-09 22:55 5.27514 -75.32272 20050 ft 271 kts 311°
2026-05-09 22:56 5.28770 -75.33693 20053 ft 272 kts 311°
2026-05-09 22:56 5.30023 -75.35110 20035 ft 271 kts 311°
2026-05-09 22:56 5.31275 -75.36527 19729 ft 272 kts 311°
2026-05-09 22:56 5.32565 -75.37954 19179 ft 279 kts 315°
2026-05-09 22:57 5.34114 -75.39162 18610 ft 286 kts 332°
2026-05-09 22:57 5.35997 -75.39847 18013 ft 292 kts 350°
2026-05-09 22:57 5.38030 -75.40073 17369 ft 297 kts 356°
2026-05-09 22:57 5.40087 -75.40183 16752 ft 301 kts 357°
2026-05-09 22:58 5.42187 -75.40282 16157 ft 303 kts 357°
2026-05-09 22:58 5.44298 -75.40386 15637 ft 301 kts 357°
2026-05-09 22:58 5.46371 -75.40493 15245 ft 295 kts 357°
2026-05-09 22:58 5.48403 -75.40602 14870 ft 290 kts 357°
2026-05-09 22:59 5.50403 -75.40710 14524 ft 286 kts 357°
2026-05-09 22:59 5.52386 -75.40818 14156 ft 284 kts 357°
2026-05-09 22:59 5.54362 -75.40926 13897 ft 284 kts 358°
2026-05-09 22:59 5.56306 -75.41034 13656 ft 283 kts 357°
2026-05-09 23:00 5.58268 -75.41143 13352 ft 281 kts 358°
2026-05-09 23:00 5.60221 -75.41252 13085 ft 280 kts 358°
2026-05-09 23:00 5.62173 -75.41361 12840 ft 280 kts 358°
2026-05-09 23:00 5.64114 -75.41468 12731 ft 278 kts 358°
2026-05-09 23:01 5.66054 -75.41575 12726 ft 279 kts 358°
2026-05-09 23:01 5.67992 -75.41683 12725 ft 279 kts 358°
2026-05-09 23:01 5.69931 -75.41791 12720 ft 277 kts 358°
2026-05-09 23:01 5.71821 -75.41896 12716 ft 266 kts 358°
2026-05-09 23:02 5.73648 -75.41998 12726 ft 262 kts 358°
2026-05-09 23:02 5.75479 -75.42099 12729 ft 269 kts 358°
2026-05-09 23:02 5.77382 -75.42188 12689 ft 276 kts 360°
2026-05-09 23:02 5.79271 -75.42213 12535 ft 271 kts
2026-05-09 23:03 5.81123 -75.42218 12398 ft 260 kts
2026-05-09 23:03 5.82906 -75.42218 12295 ft 248 kts
2026-05-09 23:03 5.84557 -75.42219 12336 ft 228 kts
2026-05-09 23:03 5.86093 -75.42224 12218 ft 220 kts
2026-05-09 23:04 5.87660 -75.42221 12098 ft 234 kts
2026-05-09 23:04 5.89298 -75.42222 11832 ft 235 kts
2026-05-09 23:04 5.90915 -75.42228 11503 ft 232 kts
2026-05-09 23:04 5.92522 -75.42234 11180 ft 230 kts
2026-05-09 23:05 5.94100 -75.42240 10896 ft 222 kts
2026-05-09 23:05 5.95607 -75.42245 10624 ft 212 kts
2026-05-09 23:05 5.97046 -75.42250 10388 ft 202 kts
2026-05-09 23:05 5.98422 -75.42255 10157 ft 193 kts
2026-05-09 23:06 5.99723 -75.42260 9978 ft 178 kts
2026-05-09 23:06 6.00911 -75.42265 9740 ft 166 kts
2026-05-09 23:06 6.02050 -75.42267 9540 ft 163 kts
2026-05-09 23:06 6.03178 -75.42272 9324 ft 161 kts
2026-05-09 23:07 6.04295 -75.42284 9140 ft 160 kts
2026-05-09 23:07 6.05395 -75.42289 8932 ft 159 kts
2026-05-09 23:07 6.06504 -75.42291 8697 ft 159 kts
2026-05-09 23:07 6.07605 -75.42269 8596 ft 157 kts
2026-05-09 23:08 6.08701 -75.42261 8340 ft 157 kts
2026-05-09 23:08 6.09797 -75.42296 8156 ft 159 kts
2026-05-09 23:08 6.10915 -75.42310 7939 ft 161 kts
2026-05-09 23:08 6.12042 -75.42295 7605 ft 164 kts
2026-05-09 23:09 6.13162 -75.42285 7385 ft 163 kts
2026-05-09 23:09 6.14290 -75.42297 7120 ft 161 kts
2026-05-09 23:09 6.15391 -75.42305 6964 ft 151 kts
2026-05-09 23:09 6.16291 -75.42308 6973 ft 104 kts 359°
2026-05-09 23:10 6.16816 -75.42315 6986 ft 37 kts 356°
2026-05-09 23:10 6.16961 -75.42344 6987 ft 18 kts 342°
2026-05-09 23:10 6.17066 -75.42392 6989 ft 15 kts 333°
2026-05-09 23:10 6.17113 -75.42418 6993 ft 0 kts 333°
2026-05-09 23:11 6.17149 -75.42437 6991 ft 8 kts 332°
2026-05-09 23:12 6.17181 -75.42478 6993 ft 15 kts 277°
2026-05-09 23:12 6.17188 -75.42630 6993 ft 14 kts 254°
2026-05-09 23:12 6.17173 -75.42683 6990 ft 0 kts 254°